STARLINK-1830 (46727 NORAD) Tracking and Keplerian Element Data

This shows tracking and keplerian element data for the satellite.

Feedback or suggestion? Click here.




ElementValue
Catalog46727
NameSTARLINK-1830
Epoch Orbit656
Epoch Day331.16668981
Epoch Year2020
RAAN279.0816
Inclination53.0548
Eccentricity0.0001222
Argument of Perigee68.9191
Mean Anonmoly60.7414
Mean Motion15.62797683
Decay Rate-0.0007106
L11 46727U 20073BK 20331.16668981 -.00071060 00000-0 -77568-3 0 9994
L22 46727 53.0548 279.0816 0001222 68.9191 60.7414 15.62797683 6560

Live tracking and technical data element details for STARLINK-1830 (NORAD 46727). STARLINK-1830 can be tracked NOW for your location showing map with azimuth and elevation plus other details from your city location.

Track the satellite on the map from your city or location and see movement details for azimuth, elevation, latitude, longitude, range, height, and movement on the map or in text.







IsCatalogInMostPopularTable: catalog: 46727, numindb: 9
Update: records affected: 1



GetName: 46727 STARLINK-1830

Hit Count: updated at: Thu, 26 Nov 2020 18:35:48 GMT